TimeMST,TemperatureF,Dew PointF,Humidity,Sea Level PressureIn,VisibilityMPH,Wind Direction,Wind SpeedMPH,Gust SpeedMPH,PrecipitationIn,Events,Conditions,WindDirDegrees,DateUTC
12:53 AM,32.0,21.9,66,29.86,10.0,WNW,16.1,-,N/A,,Clear,300,2013-02-09 07:53:00
1:53 AM,30.9,21.9,69,29.86,10.0,West,12.7,-,N/A,,Clear,280,2013-02-09 08:53:00
2:53 AM,30.9,21.0,67,29.85,10.0,WNW,11.5,-,N/A,,Clear,290,2013-02-09 09:53:00
3:53 AM,30.9,21.0,67,29.85,10.0,WNW,16.1,-,N/A,,Clear,290,2013-02-09 10:53:00
4:53 AM,30.0,21.0,69,29.85,10.0,WNW,17.3,25.3,N/A,,Clear,290,2013-02-09 11:53:00
5:53 AM,30.0,21.0,69,29.86,10.0,NW,20.7,-,N/A,,Clear,310,2013-02-09 12:53:00
6:53 AM,30.0,19.9,66,29.88,10.0,WNW,15.0,-,N/A,,Clear,300,2013-02-09 13:53:00
7:53 AM,30.0,19.0,64,29.89,10.0,NW,16.1,25.3,N/A,,Clear,310,2013-02-09 14:53:00
8:53 AM,30.9,19.0,61,29.91,10.0,NW,18.4,27.6,N/A,,Clear,320,2013-02-09 15:53:00
9:53 AM,35.1,19.0,52,29.91,10.0,NNW,20.7,-,N/A,,Clear,330,2013-02-09 16:53:00
10:53 AM,37.0,19.9,50,29.92,10.0,NNW,23.0,-,N/A,,Clear,330,2013-02-09 17:53:00
11:53 AM,39.0,19.9,46,29.92,10.0,NNW,25.3,32.2,N/A,,Clear,330,2013-02-09 18:53:00
12:53 PM,39.0,21.0,49,29.91,10.0,NW,24.2,32.2,N/A,,Clear,310,2013-02-09 19:53:00
1:53 PM,39.0,21.9,50,29.91,10.0,NNW,19.6,-,N/A,,Clear,330,2013-02-09 20:53:00
2:53 PM,41.0,21.0,45,29.91,10.0,WNW,26.5,32.2,N/A,,Clear,300,2013-02-09 21:53:00
3:53 PM,41.0,24.1,51,29.92,10.0,NNW,21.9,32.2,N/A,,Clear,330,2013-02-09 22:53:00
4:53 PM,39.9,25.0,55,29.92,10.0,NW,16.1,24.2,N/A,,Clear,320,2013-02-09 23:53:00
5:53 PM,37.9,25.0,60,29.94,10.0,NW,15.0,24.2,N/A,,Clear,320,2013-02-10 00:53:00
6:53 PM,36.0,25.0,64,29.96,10.0,NNW,13.8,24.2,N/A,,Scattered Clouds,330,2013-02-10 01:53:00
7:53 PM,36.0,25.0,64,29.99,10.0,NNW,16.1,-,N/A,,Scattered Clouds,340,2013-02-10 02:53:00
8:53 PM,36.0,24.1,62,29.99,10.0,North,4.6,-,N/A,,Overcast,350,2013-02-10 03:53:00
9:53 PM,36.0,24.1,62,29.98,10.0,NNW,12.7,-,N/A,,Partly Cloudy,340,2013-02-10 04:53:00
10:53 PM,36.0,25.0,64,29.99,10.0,NNW,12.7,-,N/A,,Overcast,330,2013-02-10 05:53:00
11:53 PM,34.0,25.0,70,30.00,10.0,NW,10.4,-,N/A,,Clear,320,2013-02-10 06:53:00